Location: Unspecified
(50.7693°N, 0.0000°E)
Time: 14:28:39
(UTC+00:00)

Transit 2A - Visible Passes

Search period start: 25 June 2019 00:00
Search period end: 05 July 2019 00:00
Orbit: 593 x 966 km, 66.7° (Epoch: 24 June)

Date Brightness Start Highest point End Pass type
(mag) Time Alt. Az. Time Alt. Az. Time Alt. Az.
25 Jun 6.6 00:28:34 14° SW 00:34:07 74° NW 00:40:18 10° NE visible
25 Jun 8.2 02:13:03 10° W 02:18:20 27° NNW 02:23:25 10° NNE visible
25 Jun 7.8 22:14:18 15° SE 22:17:22 21° ESE 22:21:54 10° ENE visible
25 Jun 6.4 23:54:44 16° SW 23:59:57 87° SE 00:06:10 10° NE visible
26 Jun 8.0 01:38:21 10° W 01:43:56 31° NNW 01:49:17 10° NNE visible
26 Jun 8.1 21:40:23 11° SE 21:43:32 16° ESE 21:47:02 10° ENE visible
26 Jun 6.5 23:20:49 17° SSW 23:25:51 69° ESE 23:32:01 10° NE visible
27 Jun 7.7 01:03:42 10° WSW 01:09:34 37° NW 01:15:12 10° NNE visible
27 Jun 8.7 02:50:16 10° WNW 02:54:32 19° NNW 02:58:37 10° NNE visible
27 Jun 8.3 21:08:24 10° ESE 21:09:46 11° E 21:11:09 10° E visible
27 Jun 6.7 22:46:45 16° S 22:51:48 53° ESE 22:57:48 10° NE visible
28 Jun 7.4 00:29:09 10° WSW 00:35:15 45° NW 00:41:06 10° NNE visible
28 Jun 8.7 02:15:28 10° WNW 02:20:01 20° NNW 02:24:22 10° NNE visible
28 Jun 7.0 22:12:30 13° S 22:17:48 40° ESE 22:23:32 10° NE visible
28 Jun 7.0 23:54:43 10° WSW 00:01:00 56° NW 00:07:01 10° NNE visible
29 Jun 8.5 01:40:39 10° WNW 01:45:31 23° NNW 01:50:09 10° NNE visible
29 Jun 7.3 21:38:27 10° S 21:43:51 30° ESE 21:49:09 10° NE visible
29 Jun 6.7 23:20:24 10° SW 23:26:47 71° NW 23:32:55 10° NE visible
30 Jun 8.4 01:05:52 10° W 01:11:03 26° NNW 01:16:01 10° NNE visible
30 Jun 8.9 02:52:32 10° NW 02:56:22 17° N 03:00:03 10° NE visible
30 Jun 7.6 21:05:12 10° SSE 21:09:58 23° ESE 21:14:39 10° ENE visible
30 Jun 6.5 22:46:12 10° SW 22:52:37 88° NW 22:58:47 10° NE visible
01 Jul 8.2 00:31:09 10° W 00:36:39 30° NNW 00:41:54 10° NNE visible
01 Jul 8.9 02:17:52 10° NW 02:21:49 17° N 02:25:35 10° NNE visible
01 Jul 6.4 22:12:09 10° SSW 22:18:30 73° ESE 22:24:39 10° NE visible
01 Jul 7.9 23:56:29 10° WSW 00:02:16 36° NW 00:07:48 10° NNE visible
02 Jul 8.9 01:43:06 10° NW 01:47:16 18° NNW 01:51:14 10° NNE visible
02 Jul 6.6 21:38:14 10° SSW 21:44:27 56° ESE 21:50:27 10° NE visible
02 Jul 7.6 23:21:55 10° WSW 23:27:57 43° NW 23:33:43 10° NNE visible
03 Jul 8.9 01:08:18 10° WNW 01:12:44 20° NNW 01:16:57 10° NNE visible
03 Jul 9.0 02:54:20 10° NNW 02:58:13 18° N 03:01:55 10° NE visible
03 Jul 6.8 21:04:29 10° S 21:10:26 42° ESE 21:16:11 10° NE visible
03 Jul 7.2 22:47:27 10° WSW 22:53:41 53° NW 22:59:37 10° NNE visible
04 Jul 8.8 00:33:30 10° WNW 00:38:14 22° NNW 00:42:45 10° NNE visible
04 Jul 9.0 02:19:54 10° NW 02:23:40 17° N 02:27:15 10° NE visible
04 Jul 6.8 22:13:06 10° SW 22:19:27 67° NW 22:25:31 10° NE visible
